Weather History for Pecos, TX

Change the Weather History Date:

Tuesday, October 18, 2011

  Actual Average Record
Temperature  
Mean Temperature 59 °F -  
Max Temperature 69 °F 81 °F 100 °F (1972)
Min Temperature 49 °F 46 °F 34 °F (1968)
Degree Days  
Heating Degree Days 6    
Growing Degree Days 9 (Base 50)    
Moisture  
Dew Point 33 °F    
Average Humidity 38    
Maximum Humidity 56    
Minimum Humidity 19    
Precipitation  
Precipitation 0.00 in - - ()
Sea Level Pressure  
Sea Level Pressure 30.24 in    
Wind  
Wind Speed 11 mph (North)    
Max Wind Speed 17 mph    
Max Gust Speed 26 mph    
Visibility 10 miles    
Events      
Averages and records for this station are not official NWS values.
T = Trace of Precipitation, MM = Missing Value Source: NWS Daily Summary

Daily Weather History Graph

Daily Weather History Graph

Search for Another Location

Airport:

Trip Planner

Search our weather history database for the weather conditions in past years. The results will help you decide how hot, cold, wet, or windy it might be!

Date:

Astronomy

Oct. 18, 2011 Rise Set
Actual Time 7:58 AM CDT 7:18 PM CDT
Civil Twilight 7:34 AM CDT 7:43 PM CDT
Nautical Twilight 7:06 AM CDT 8:11 PM CDT
Astronomical Twilight 6:37 AM CDT 8:39 PM CDT
Moon No Moon Rise 1:38 PM CDT (10/18)
Length of Visible Light 12h 09m
Length of Day
11h 20m
Waning Gibbous, 64% of the Moon is Illuminated
Oct 18
Waning Gibbous
Oct 19
Last Quarter
Oct 26
New
Nov 2
First Quarter
Nov 10
Full

Hourly Weather History & Observations

Time (CDT) Temp. Dew Point Humidity Pressure Visibility Wind Dir Wind Speed Gust Speed Precip Events Conditions
12:15 AM 66.2 °F 36.3 °F 33% 30.10 in 7.0 mi North 8.1 mph - N/A   Overcast
12:35 AM 65.3 °F 36.5 °F 34% 30.12 in 7.0 mi North 12.7 mph - N/A   Scattered Clouds
12:55 AM 64.4 °F 36.5 °F 36% 30.13 in 7.0 mi NW 3.5 mph - N/A   Scattered Clouds
1:15 AM 63.3 °F 36.5 °F 37% 30.14 in 10.0 mi North 16.1 mph 20.7 mph N/A   Scattered Clouds
1:35 AM 63.0 °F 36.5 °F 37% 30.16 in 10.0 mi NNW 12.7 mph - N/A   Clear
1:55 AM 62.2 °F 36.7 °F 39% 30.16 in 10.0 mi North 11.5 mph 18.4 mph N/A   Clear
2:15 AM 61.5 °F 36.5 °F 39% 30.17 in 10.0 mi North 8.1 mph - N/A   Clear
2:55 AM 59.4 °F 36.3 °F 42% 30.18 in 10.0 mi NNW 9.2 mph - N/A   Clear
3:35 AM 58.8 °F 37.2 °F 45% 30.19 in 10.0 mi North 4.6 mph - N/A   Clear
3:55 AM 57.6 °F 36.9 °F 46% 30.20 in 10.0 mi NW 5.8 mph - N/A   Clear
4:15 AM 55.0 °F 36.5 °F 50% 30.20 in 10.0 mi NNW 6.9 mph - N/A   Clear
4:35 AM 55.9 °F 35.6 °F 46% 30.21 in 10.0 mi NNW 10.4 mph - N/A   Clear
4:55 AM 55.4 °F 34.7 °F 46% 30.22 in 10.0 mi North 10.4 mph - N/A   Clear
5:15 AM 54.5 °F 34.2 °F 46% 30.22 in 10.0 mi North 17.3 mph - N/A   Clear
5:35 AM 54.5 °F 34.2 °F 46% 30.23 in 10.0 mi North 15.0 mph - N/A   Clear
5:55 AM 54.1 °F 34.5 °F 48% 30.24 in 10.0 mi North 15.0 mph - N/A   Clear
6:15 AM 53.4 °F 34.9 °F 49% 30.24 in 10.0 mi North 16.1 mph 23.0 mph N/A   Clear
6:35 AM 53.1 °F 35.2 °F 51% 30.25 in 10.0 mi North 16.1 mph 20.7 mph N/A   Clear
6:55 AM 52.5 °F 35.1 °F 51% 30.26 in 10.0 mi North 13.8 mph - N/A   Clear
7:15 AM 52.0 °F 34.9 °F 52% 30.26 in 10.0 mi North 13.8 mph 23.0 mph N/A   Clear
7:35 AM 51.4 °F 34.7 °F 53% 30.27 in 10.0 mi North 12.7 mph - N/A   Clear
7:55 AM 50.7 °F 34.7 °F 54% 30.28 in 10.0 mi North 13.8 mph - N/A   Clear
8:15 AM 49.8 °F 34.7 °F 56% 30.29 in 10.0 mi North 10.4 mph - N/A   Clear
8:35 AM 49.8 °F 34.7 °F 56% 30.30 in 10.0 mi North 10.4 mph - N/A   Clear
8:55 AM 50.2 °F 34.7 °F 55% 30.31 in 10.0 mi North 12.7 mph - N/A   Clear
9:15 AM 51.1 °F 34.9 °F 54% 30.32 in 10.0 mi North 9.2 mph 16.1 mph N/A   Clear
9:35 AM 52.2 °F 34.9 °F 52% 30.33 in 10.0 mi North 12.7 mph - N/A   Clear
9:55 AM 53.2 °F 35.2 °F 51% 30.34 in 10.0 mi North 15.0 mph - N/A   Clear
10:15 AM 54.1 °F 35.6 °F 50% 30.34 in 10.0 mi North 12.7 mph 19.6 mph N/A   Clear
10:35 AM 54.9 °F 35.6 °F 48% 30.34 in 10.0 mi North 12.7 mph - N/A   Clear
11:15 AM 56.5 °F 35.6 °F 46% 30.33 in 10.0 mi WNW 6.9 mph - N/A   Clear
11:55 AM 58.8 °F 35.1 °F 41% 30.33 in 10.0 mi NW 10.4 mph - N/A   Clear
12:15 PM 59.2 °F 35.1 °F 40% 30.32 in 10.0 mi NW 8.1 mph - N/A   Clear
12:35 PM 60.1 °F 34.9 °F 39% 30.32 in 10.0 mi NNW 6.9 mph - N/A   Clear
12:55 PM 61.2 °F 34.2 °F 36% 30.31 in 10.0 mi NNW 9.2 mph - N/A   Clear
1:15 PM 62.2 °F 33.1 °F 34% 30.30 in 10.0 mi North 8.1 mph - N/A   Clear
1:35 PM 63.3 °F 32.7 °F 32% 30.29 in 10.0 mi North 10.4 mph - N/A   Clear
1:55 PM 64.4 °F 32.2 °F 30% 30.29 in 10.0 mi NNE 8.1 mph - N/A   Clear
2:15 PM 64.9 °F 32.0 °F 29% 30.27 in 10.0 mi North 11.5 mph 21.9 mph N/A   Clear
2:35 PM 64.9 °F 32.0 °F 29% 30.26 in 10.0 mi NNW 15.0 mph 18.4 mph N/A   Clear
2:55 PM 65.8 °F 31.6 °F 28% 30.26 in 10.0 mi North 8.1 mph 20.7 mph N/A   Clear
3:15 PM 66.7 °F 30.7 °F 26% 30.24 in 10.0 mi North 13.8 mph 26.5 mph N/A   Clear
3:35 PM 67.5 °F 29.7 °F 24% 30.24 in 10.0 mi NNE 11.5 mph - N/A   Clear
3:55 PM 67.6 °F 28.9 °F 24% 30.23 in 10.0 mi NNE 10.4 mph - N/A   Clear
4:15 PM 68.0 °F 28.0 °F 22% 30.22 in 10.0 mi North 13.8 mph 19.6 mph N/A   Clear
4:35 PM 68.5 °F 27.5 °F 22% 30.22 in 10.0 mi NE 11.5 mph - N/A   Clear
4:55 PM 68.7 °F 27.0 °F 21% 30.22 in 10.0 mi NNE 11.5 mph 18.4 mph N/A   Clear
5:15 PM 68.7 °F 26.4 °F 20% 30.22 in 10.0 mi NNE 11.5 mph 17.3 mph N/A   Clear
5:35 PM 68.9 °F 25.7 °F 20% 30.21 in 10.0 mi North 10.4 mph - N/A   Clear
5:55 PM 69.1 °F 25.0 °F 19% 30.21 in 10.0 mi NNE 10.4 mph 16.1 mph N/A   Clear
6:15 PM 68.4 °F 24.8 °F 19% 30.21 in 10.0 mi NE 11.5 mph - N/A   Clear
6:35 PM 67.8 °F 24.4 °F 19% 30.21 in 10.0 mi NNE 10.4 mph - N/A   Clear
6:55 PM 66.9 °F 24.3 °F 20% 30.22 in 10.0 mi NNE 8.1 mph - N/A   Clear
7:15 PM 65.8 °F 23.9 °F 20% 30.22 in 10.0 mi NNE 8.1 mph - N/A   Clear
7:35 PM 64.2 °F 24.1 °F 22% 30.23 in 10.0 mi NNE 5.8 mph - N/A   Clear
8:15 PM 61.2 °F 23.9 °F 24% 30.24 in 10.0 mi NE 4.6 mph - N/A   Clear
8:35 PM 59.9 °F 23.4 °F 25% 30.25 in 10.0 mi NE 3.5 mph - N/A   Clear
8:55 PM 59.7 °F 23.4 °F 25% 30.25 in 10.0 mi NE 4.6 mph - N/A   Clear
9:15 PM 59.2 °F 23.5 °F 25% 30.25 in 10.0 mi NE 3.5 mph - N/A   Clear
9:35 PM 58.5 °F 23.4 °F 26% 30.25 in 10.0 mi NE 4.6 mph - N/A   Clear
9:55 PM 57.4 °F 23.0 °F 27% 30.25 in 10.0 mi Calm Calm - N/A   Clear
10:15 PM 55.2 °F 22.3 °F 28% 30.26 in 10.0 mi Calm Calm - N/A   Clear
10:35 PM 54.3 °F 22.5 °F 29% 30.26 in 10.0 mi Calm Calm - N/A   Clear
10:55 PM 53.4 °F 22.1 °F 30% 30.26 in 10.0 mi Calm Calm - N/A   Clear
11:15 PM 52.0 °F 21.7 °F 31% 30.26 in 10.0 mi South 3.5 mph - N/A   Clear
11:35 PM 50.2 °F 22.3 °F 34% 30.26 in 10.0 mi SSW 3.5 mph - N/A   Clear
11:55 PM 48.7 °F 22.1 °F 35% 30.27 in 10.0 mi SW 4.6 mph - N/A   Clear